UAL123 VIDP-LOWW

Flight info

Callsign UAL123
Flight time N/A
Altitude 36000
Route DUDU6G DUDUM Q2 NIKOT R462 UUD J61 LAXOM L639 RASKI N881 KIPOL L444 TOLDA M628 TULBU G652 TOKRA ALROK BOSOB ITRUX Y511 PMA Z712 WEJ L677 CVO L617 TANSA PEXAN BITLA MAVAR BOSNA OBUTI TISKO NIDLO NIGSI NIGS2W
Aircraft A388/J-SADE2E3FGHIJ3J4J5M1RWXY/LB1D1

Departure

Time N/A
Airport Indira Gandhi International Airport (VIDP)

Arrival

Time 2026-05-04 00:52
Airport Vienna International Airport (LOWW)
Time Latitude Longitude Altitude Speed Heading
2026-05-04 00:20 47.41471 14.32868 36067 ft 511 kts 103°
2026-05-04 00:21 47.40982 14.38078 36075 ft 512 kts 92°
2026-05-04 00:21 47.40996 14.43331 36074 ft 512 kts 88°
2026-05-04 00:21 47.41145 14.53788 36085 ft 513 kts 90°
2026-05-04 00:22 47.41017 14.64306 36091 ft 512 kts 91°
2026-05-04 00:22 47.40777 14.74619 35929 ft 489 kts 91°
2026-05-04 00:23 47.40653 14.79602 35496 ft 482 kts 91°
2026-05-04 00:23 47.40528 14.84529 34887 ft 479 kts 91°
2026-05-04 00:23 47.40402 14.89440 34281 ft 477 kts 91°
2026-05-04 00:23 47.40276 14.94314 33622 ft 474 kts 91°
2026-05-04 00:24 47.40149 14.99170 32949 ft 472 kts 91°
2026-05-04 00:24 47.40021 15.03993 32293 ft 469 kts 91°
2026-05-04 00:24 47.39892 15.08803 31656 ft 467 kts 91°
2026-05-04 00:24 47.39763 15.13472 31036 ft 465 kts 91°
2026-05-04 00:25 47.39632 15.18175 30434 ft 463 kts 91°
2026-05-04 00:25 47.39499 15.22910 29764 ft 460 kts 91°
2026-05-04 00:25 47.39364 15.27612 29072 ft 458 kts 92°
2026-05-04 00:25 47.39229 15.32294 28395 ft 455 kts 92°
2026-05-04 00:26 47.39092 15.36949 27722 ft 452 kts 92°
2026-05-04 00:26 47.38954 15.41562 27068 ft 448 kts 92°
2026-05-04 00:26 47.38815 15.46151 26442 ft 445 kts 92°
2026-05-04 00:26 47.38675 15.50699 25819 ft 442 kts 92°
2026-05-04 00:27 47.38535 15.55219 25209 ft 438 kts 92°
2026-05-04 00:27 47.38395 15.59689 24612 ft 435 kts 92°
2026-05-04 00:27 47.38253 15.64133 24033 ft 431 kts 92°
2026-05-04 00:27 47.38112 15.68531 23420 ft 427 kts 93°
2026-05-04 00:28 47.37970 15.72892 22737 ft 424 kts 93°
2026-05-04 00:28 47.37827 15.77212 22071 ft 420 kts 93°
2026-05-04 00:28 47.37683 15.81520 21413 ft 417 kts 93°
2026-05-04 00:28 47.37541 15.85725 20783 ft 413 kts 93°
2026-05-04 00:29 47.37397 15.89945 20161 ft 410 kts 94°
2026-05-04 00:29 47.37253 15.94121 19541 ft 406 kts 94°
2026-05-04 00:29 47.37386 15.98247 18941 ft 403 kts 80°
2026-05-04 00:29 47.38267 16.02143 18355 ft 400 kts 64°
2026-05-04 00:30 47.39840 16.05499 17687 ft 398 kts 47°
2026-05-04 00:30 47.41985 16.08048 17040 ft 395 kts 30°
2026-05-04 00:30 47.44511 16.09560 16396 ft 392 kts 13°
2026-05-04 00:30 47.47192 16.10187 15777 ft 388 kts
2026-05-04 00:31 47.49861 16.10763 15154 ft 385 kts 10°
2026-05-04 00:31 47.52469 16.11590 14548 ft 383 kts 14°
2026-05-04 00:31 47.55030 16.12643 13963 ft 380 kts 17°
2026-05-04 00:31 47.57512 16.13804 13316 ft 377 kts 18°
2026-05-04 00:32 47.59995 16.15028 12665 ft 374 kts 19°
2026-05-04 00:32 47.62461 16.16267 12043 ft 375 kts 19°
2026-05-04 00:32 47.64971 16.17532 11424 ft 389 kts 19°
2026-05-04 00:32 47.67586 16.18845 10805 ft 402 kts 18°
2026-05-04 00:33 47.70255 16.20182 10312 ft 405 kts 18°
2026-05-04 00:33 47.75424 16.23103 9993 ft 391 kts 31°
2026-05-04 00:33 47.77497 16.25666 9991 ft 388 kts 50°
2026-05-04 00:34 47.79000 16.28990 9998 ft 390 kts 61°
2026-05-04 00:34 47.80344 16.32519 9995 ft 393 kts 62°
2026-05-04 00:34 47.81688 16.36066 9987 ft 392 kts 62°
2026-05-04 00:34 47.83037 16.39590 9993 ft 393 kts 61°
2026-05-04 00:35 47.84401 16.43118 9987 ft 392 kts 61°
2026-05-04 00:35 47.85750 16.46590 9987 ft 392 kts 61°
2026-05-04 00:35 47.87113 16.50094 9983 ft 392 kts 61°
2026-05-04 00:35 47.88484 16.53619 9985 ft 392 kts 61°
2026-05-04 00:36 47.89850 16.57136 9985 ft 392 kts 61°
2026-05-04 00:36 47.91212 16.60646 9981 ft 391 kts 61°
2026-05-04 00:36 47.92114 16.62975 9978 ft 391 kts 61°
2026-05-04 00:36 47.93540 16.66414 9982 ft 391 kts 53°
2026-05-04 00:37 47.95507 16.69237 9986 ft 395 kts 36°
2026-05-04 00:37 47.97956 16.71090 9984 ft 397 kts 18°
2026-05-04 00:37 48.00634 16.71980 9979 ft 393 kts
2026-05-04 00:37 48.03341 16.72594 9980 ft 394 kts
2026-05-04 00:38 48.06042 16.73300 9977 ft 395 kts 11°
2026-05-04 00:38 48.08739 16.74119 9968 ft 395 kts
2026-05-04 00:38 48.11408 16.74151 9976 ft 373 kts 350°
2026-05-04 00:38 48.13796 16.73024 9976 ft 349 kts 333°
2026-05-04 00:39 48.15881 16.71371 9971 ft 329 kts 331°
2026-05-04 00:39 48.17863 16.69825 9974 ft 313 kts 331°
2026-05-04 00:39 48.19759 16.68361 9886 ft 304 kts 331°
2026-05-04 00:39 48.21637 16.66919 9526 ft 303 kts 333°
2026-05-04 00:40 48.23614 16.65824 9147 ft 303 kts 344°
2026-05-04 00:40 48.25652 16.65014 8778 ft 301 kts 344°
2026-05-04 00:40 48.27673 16.64176 8406 ft 301 kts 343°
2026-05-04 00:40 48.29687 16.63325 8026 ft 300 kts 343°
2026-05-04 00:41 48.31661 16.62490 7667 ft 298 kts 343°
2026-05-04 00:41 48.33659 16.61645 7301 ft 297 kts 343°
2026-05-04 00:41 48.35641 16.60808 6941 ft 295 kts 343°
2026-05-04 00:41 48.37618 16.59972 6589 ft 294 kts 343°
2026-05-04 00:42 48.39587 16.59140 6229 ft 294 kts 343°
2026-05-04 00:42 48.41548 16.58311 5858 ft 293 kts 343°
2026-05-04 00:42 48.43506 16.57483 5474 ft 291 kts 343°
2026-05-04 00:42 48.45413 16.56498 5121 ft 288 kts 329°
2026-05-04 00:43 48.46847 16.54566 5014 ft 269 kts 301°
2026-05-04 00:43 48.47486 16.52034 4978 ft 253 kts 271°
2026-05-04 00:43 48.47362 16.49668 4984 ft 243 kts 251°
2026-05-04 00:43 48.46684 16.47362 4980 ft 239 kts 232°
2026-05-04 00:44 48.45562 16.45551 4974 ft 236 kts 214°
2026-05-04 00:44 48.44168 16.44352 4982 ft 234 kts 205°
2026-05-04 00:44 48.42686 16.43397 4977 ft 231 kts 189°
2026-05-04 00:44 48.41091 16.43582 4981 ft 234 kts 160°
2026-05-04 00:45 48.39654 16.44743 4979 ft 235 kts 150°
2026-05-04 00:45 48.38251 16.45982 4975 ft 231 kts 154°
2026-05-04 00:45 48.36848 16.46972 4979 ft 215 kts 159°
2026-05-04 00:45 48.35513 16.47724 4978 ft 191 kts 162°
2026-05-04 00:46 48.34312 16.48311 4979 ft 177 kts 164°
2026-05-04 00:46 48.33134 16.48835 4924 ft 177 kts 166°
2026-05-04 00:46 48.31964 16.49321 4705 ft 176 kts 166°
2026-05-04 00:46 48.30793 16.49819 4457 ft 174 kts 166°
2026-05-04 00:47 48.29633 16.50314 4215 ft 172 kts 166°
2026-05-04 00:47 48.28498 16.50797 3976 ft 171 kts 166°
2026-05-04 00:47 48.27365 16.51282 3751 ft 165 kts 166°
2026-05-04 00:47 48.26320 16.51728 3534 ft 146 kts 166°
2026-05-04 00:48 48.25394 16.52122 3357 ft 134 kts 167°
2026-05-04 00:48 48.24506 16.52498 3191 ft 132 kts 167°
2026-05-04 00:48 48.23615 16.52875 3018 ft 134 kts 167°
2026-05-04 00:48 48.22725 16.53256 2838 ft 132 kts 167°
2026-05-04 00:49 48.21844 16.53629 2665 ft 131 kts 167°
2026-05-04 00:49 48.20987 16.53995 2497 ft 129 kts 168°
2026-05-04 00:49 48.20118 16.54363 2328 ft 128 kts 167°
2026-05-04 00:49 48.19263 16.54729 2146 ft 127 kts 167°
2026-05-04 00:50 48.18416 16.55086 1983 ft 127 kts 167°
2026-05-04 00:50 48.17575 16.55447 1807 ft 124 kts 168°
2026-05-04 00:50 48.16747 16.55799 1624 ft 126 kts 168°
2026-05-04 00:50 48.15893 16.56151 1438 ft 126 kts 167°
2026-05-04 00:51 48.15049 16.56517 1275 ft 130 kts 166°
2026-05-04 00:51 48.14171 16.56888 1083 ft 130 kts 165°
2026-05-04 00:51 48.13307 16.57255 893 ft 128 kts 165°
2026-05-04 00:51 48.12448 16.57625 726 ft 128 kts 166°
2026-05-04 00:52 48.11593 16.57985 637 ft 124 kts 165°
2026-05-04 00:52 48.10874 16.58285 623 ft 86 kts 164°
2026-05-04 00:52 48.10496 16.58445 601 ft 28 kts 164°
2026-05-04 00:52 48.10336 16.58462 603 ft 20 kts 185°
2026-05-04 00:53 48.10203 16.58430 602 ft 19 kts 196°
2026-05-04 00:53 48.10112 16.58339 622 ft 16 kts 241°
2026-05-04 00:53 48.10113 16.58206 625 ft 15 kts 317°
2026-05-04 00:53 48.10313 16.58104 624 ft 49 kts 344°
2026-05-04 00:54 48.10648 16.57963 625 ft 48 kts 344°
2026-05-04 00:54 48.10966 16.57831 620 ft 44 kts 345°
2026-05-04 00:54 48.11165 16.57675 618 ft 29 kts 292°
2026-05-04 00:54 48.11265 16.57388 622 ft 33 kts 296°
2026-05-04 00:55 48.11367 16.57076 625 ft 33 kts 296°
2026-05-04 00:55 48.11472 16.56751 621 ft 35 kts 296°
2026-05-04 00:55 48.11580 16.56419 616 ft 36 kts 296°
2026-05-04 00:55 48.11688 16.56086 603 ft 33 kts 296°
2026-05-04 00:56 48.11748 16.55910 602 ft 11 kts 303°
2026-05-04 00:56 48.11787 16.55889 601 ft 4 kts 44°
2026-05-04 00:56 48.11805 16.55939 602 ft 6 kts 75°
2026-05-04 00:56 48.11808 16.55962 602 ft 0 kts 80°